Location: Fenile
(46.0500°N, 9.5500°E)
Time: 14:31:39
(UTC+00:00)

Okean 1-7 - Pass Details

Date: 03 March 2021
Orbit: 590 x 619 km, 82.5° (Epoch: 11 April)

Event Time Altitude Azimuth Distance (km) Brightness Sun altitude
Rises 17:57:45 0° 1° (N) 2,897 6.5 -8.9°
Reaches altitude 10° 18:00:17 10° 13° (NNE) 1,982 5.5 -9.3°
Maximum altitude 18:04:02 27° 72° (ENE) 1,188 4.0 -10.0°
Drops below altitude 10° 18:07:43 10° 131° (SE) 1,954 5.2 -10.6°
Enters shadow 18:08:53 - 138° (SE) 2,365 5.6 -10.8°
